Weather in Morkiny Gory

Russia / Tver Oblast     57°32′53″N   36°17′44″E
temp.,
°C
wind,
m/s
gust,
m/s
humid.,
%
clouds,
%
prec.,
mm/h
press.,
hPa
HPBL,
m
18 april, sun
sun1800:00+6ne312705 0.0 1025304
03:00+4ne312814 0.0 1025320
06:00+3ne312850 0.0 1025330
09:00+8ene510600 0.0 1025896
12:00+12ene68465 0.0 10241745
15:00+13ene684067 0.0 10242126
18:00+10ne5954100 0.0 10251324
21:00+7ene4106795 0.0 1026696
19 april, mon
mon1900:00+5ene41081100 0.0 1027535
03:00+4ene4986100 0.0 1028531
06:00+3ene4982100 0.0 1028598
09:00+4ene4766100 0.0 1028746
12:00+7ene565197 0.0 10281268
15:00+8e574796 0.0 10281552
18:00+7e4748100 0.0 10271493
21:00+4e3106280 0.0 1028488
20 april, tue
tue2000:00+3e41158100 0.0 1027526
03:00+2ene4116479 0.0 1026509
06:00+2ene41067100 0.0 1025608
09:00+4e5965100 0.0 1024802
12:00+4e51088100 0.1 1024832
15:00+4e41194100 0.9 1022764
18:00+4e41096100 0.2 1020733
21:00+3e41397100 1.6 1019822
21 april, wed
wed2100:00+4e51288100 2.1 1015921
03:00+2e61592100 3.0 1010938
06:000e61697100 4.9 1006784
09:00+2e61597100 7.2 1004854
12:00+4ese51395100 0.4 1002866
15:00+4ese41395100 1.3 1000761
18:00+4sse3698100 0.4 1000778
21:00+3s2699100 0.8 1001659
22 april, thu
thu2200:00+2wsw51297100 1.8 1006835
03:00+2sw41194100 2.1 10091122
06:00+3ssw51192100 0.1 1011941
09:00+5sw51191100 0.2 1013876
12:00+7wsw4881100 0.3 10151033
15:00+9wsw366864 0.6 10171207
18:00+9wsw24735 0.1 1018240
21:00+5s22896 0.1 102011